sat.trackr.live / text

‹ back to catalog

CHUANGXIN 1-04 (CX-1-04)

NORAD 40137 · 2014-051B

PAYLOAD ACTIVE UNKNOWN

§ Identity

Operator
Country
PRC
Launch date
2014-09-04
Launch site
JSC
Launch vehicle
Mass (kg)
RCS (m²)
0.57

External: N2YO · Heavens-Above · Gunter

§ Orbital elements

Epoch: 2026-09-20T05:18:41.756832Z

Period
100.67 min
Inclination
98.7121°
Eccentricity
0.0021096
Mean motion
14.30427159 rev/d
Perigee alt
775.2 km
Apogee alt
805.4 km
Semi-major
7,168.4 km
B*
-3.9700e-6
RAAN
265.1786°
Arg perigee
255.5972°
Mean anomaly
104.2869°
Rev number
62,813

§ Raw data

CHUANGXIN 1-04 (CX-1-04)1 40137U 14051B   26263.22131663 -.00000055  00000+0 -39700-5 0  99942 40137  98.7121 265.1786 0021096 255.5972 104.2869 14.30427159628139

JSON: /api/v1/satellites/40137 · /tle

For live sub-satellite position, see the globe view (requires WebGL).

§ Visibility from observer

Set your observer location to see the next 7 days of passes ≥ 10°. The values pass through the URL so the page stays shareable.

No JS? Fill the form by hand. The geolocation button needs JavaScript.